This is the latest recevied weather packets stored in our database for station/object K0APR. If no packets are shown the sender has not sent any weather packets the latest 10 day(s).
| Time | Temp. | Humidity | Pressure | Rain* | Wind** | Luminosity | Snow |
|---|---|---|---|---|---|---|---|
| 1788107588 | 24.44° C | 89% | 1008.8 hPa | 0 mm | - | 626 W/m² | - |
| 1788107283 | 23.89° C | 90% | 1008.4 hPa | 0 mm | - | 382 W/m² | - |
| 1788106979 | 23.33° C | 91% | 1009.2 hPa | 0 mm | - | 262 W/m² | - |
| 1788106675 | 23.33° C | 91% | 1008.8 hPa | 0 mm | - | 386 W/m² | - |
| 1788106374 | 22.78° C | 93% | 1009.2 hPa | 0 mm | - | 306 W/m² | - |
| 1788106070 | 22.78° C | 95% | 1009.2 hPa | 0 mm | - | 222 W/m² | - |
| 1788105769 | 22.22° C | 95% | 1009.2 hPa | 0 mm | - | 212 W/m² | - |
| 1788105465 | 22.22° C | 97% | 1008.8 hPa | 0 mm | - | 211 W/m² | - |
| 1788105162 | 21.67° C | 97% | 1008.8 hPa | 0 mm | - | 264 W/m² | - |
| 1788104862 | 21.67° C | 98% | 1008.8 hPa | 0 mm | - | 264 W/m² | - |
| 1788104557 | 21.67° C | 98% | 1008.4 hPa | 0 mm | - | 124 W/m² | - |
| 1788104254 | 21.11° C | 98% | 1008.8 hPa | 0 mm | - | 109 W/m² | - |
| 1788103949 | 21.11° C | 98% | 1008.8 hPa | 0 mm | - | 101 W/m² | - |
| 1788103647 | 21.11° C | 99% | 1008.8 hPa | 0 mm | - | 115 W/m² | - |
| 1788103342 | 21.11° C | 99% | 1008.4 hPa | 0 mm | - | 121 W/m² | - |
| 1788103037 | 21.11° C | 99% | 1008.4 hPa | 0 mm | - | 129 W/m² | - |
| 1788102736 | 21.11° C | 99% | 1008.4 hPa | 0 mm | - | 111 W/m² | - |
| 1788102431 | 20.56° C | 99% | 1008.8 hPa | 0 mm | - | 98 W/m² | - |
| 1788102126 | 20.56° C | 99% | 1008.4 hPa | 0 mm | - | 95 W/m² | - |
| 1788101826 | 20.56° C | 99% | 1008.8 hPa | 0 mm | - | 88 W/m² | - |
| 1788101521 | 20.56° C | 99% | 1008.8 hPa | 0 mm | - | 87 W/m² | - |
| 1788101216 | 20.56° C | 99% | 1008.8 hPa | 0 mm | - | 75 W/m² | - |
| 1788100912 | 20.56° C | 99% | 1008.8 hPa | 0 mm | - | 68 W/m² | - |
| 1788100608 | 20.56° C | 99% | 1008.4 hPa | 0 mm | - | 74 W/m² | - |
| 1788100306 | 20.56° C | 99% | 1008.4 hPa | 0 mm | - | 77 W/m² | - |
* Rain latest hour (hover to see other rain measurements)
** Current wind speed in m/s (hover to see current wind gust speed)